Year,Month,Day,Hour,Minute,Value (Times are PST for temperature in C)
2015,06,18,07,26,14.20
2015,06,18,07,27,14.20
2015,06,18,07,28,14.20
2015,06,18,07,29,14.20
2015,06,18,07,30,14.20
2015,06,18,07,31,14.20
2015,06,18,07,32,14.20
2015,06,18,07,33,14.20
2015,06,18,07,34,14.20
2015,06,18,07,35,14.20
2015,06,18,07,36,14.30
2015,06,18,07,37,14.30
2015,06,18,07,38,14.40
2015,06,18,07,39,14.40
2015,06,18,07,40,14.50
2015,06,18,07,41,14.50
2015,06,18,07,42,14.50
2015,06,18,07,43,14.60
2015,06,18,07,44,14.60
2015,06,18,07,45,14.60
2015,06,18,07,46,14.70
2015,06,18,07,47,14.70
2015,06,18,07,48,14.70
2015,06,18,07,49,14.80
2015,06,18,07,50,14.80
2015,06,18,07,51,14.80
2015,06,18,07,52,14.80
2015,06,18,07,53,14.90
2015,06,18,07,54,14.90
2015,06,18,07,55,14.90
2015,06,18,07,56,15.00
2015,06,18,07,57,15.10
2015,06,18,07,58,15.20
2015,06,18,07,59,15.20
2015,06,18,08,00,15.30
2015,06,18,08,01,15.30
2015,06,18,08,02,15.40
2015,06,18,08,03,15.50
2015,06,18,08,04,15.60
2015,06,18,08,05,15.70
2015,06,18,08,06,15.80
2015,06,18,08,07,15.80
2015,06,18,08,08,15.80
2015,06,18,08,09,15.80
2015,06,18,08,10,15.80
2015,06,18,08,11,15.80
2015,06,18,08,12,15.80
2015,06,18,08,13,15.80
2015,06,18,08,14,15.90
2015,06,18,08,15,16.00
2015,06,18,08,16,16.10
2015,06,18,08,17,16.20
2015,06,18,08,18,16.20
2015,06,18,08,19,16.30
2015,06,18,08,20,16.40
2015,06,18,08,21,16.50
2015,06,18,08,22,16.60
2015,06,18,08,23,16.70
2015,06,18,08,24,16.70
2015,06,18,08,25,16.80
2015,06,18,08,26,16.90
2015,06,18,08,27,17.00
2015,06,18,08,28,17.10
2015,06,18,08,29,17.10
2015,06,18,08,30,17.20
2015,06,18,08,31,17.30
2015,06,18,08,32,17.30
2015,06,18,08,33,17.30
2015,06,18,08,34,17.40
2015,06,18,08,35,17.40
2015,06,18,08,36,17.50
2015,06,18,08,37,17.50
2015,06,18,08,38,17.40
2015,06,18,08,39,17.40
2015,06,18,08,40,17.40
2015,06,18,08,41,17.30
2015,06,18,08,42,17.20
2015,06,18,08,43,17.20
2015,06,18,08,44,17.10
2015,06,18,08,45,17.20
2015,06,18,08,46,17.20
2015,06,18,08,47,17.20
2015,06,18,08,48,17.30
2015,06,18,08,49,17.20
2015,06,18,08,50,17.20
2015,06,18,08,51,17.20
2015,06,18,08,52,17.20
2015,06,18,08,53,17.20
2015,06,18,08,54,17.20
2015,06,18,08,55,17.20
2015,06,18,08,56,17.20
2015,06,18,08,57,17.30
2015,06,18,08,58,17.30
2015,06,18,08,59,17.30
2015,06,18,09,00,17.30
2015,06,18,09,01,17.20
2015,06,18,09,02,17.20
2015,06,18,09,03,17.20
2015,06,18,09,04,17.20
2015,06,18,09,05,17.20
2015,06,18,09,06,17.20
2015,06,18,09,07,17.20
2015,06,18,09,08,17.20
2015,06,18,09,09,17.20
2015,06,18,09,10,17.30
2015,06,18,09,11,17.20
2015,06,18,09,12,17.20
2015,06,18,09,13,17.20
2015,06,18,09,14,17.20
2015,06,18,09,15,17.20
2015,06,18,09,16,17.20
2015,06,18,09,17,17.10
2015,06,18,09,18,17.10
2015,06,18,09,19,17.10
2015,06,18,09,20,17.10
2015,06,18,09,21,17.00
2015,06,18,09,22,17.00
2015,06,18,09,23,17.00
2015,06,18,09,24,16.90
2015,06,18,09,25,16.90
2015,06,18,09,26,16.90
2015,06,18,09,27,16.90
2015,06,18,09,28,16.90
2015,06,18,09,29,16.90
2015,06,18,09,30,16.90
2015,06,18,09,31,16.90
2015,06,18,09,32,17.00
2015,06,18,09,33,17.00
2015,06,18,09,34,17.10
2015,06,18,09,35,17.10
2015,06,18,09,36,17.20
2015,06,18,09,37,17.30
2015,06,18,09,38,17.30
2015,06,18,09,39,17.40
2015,06,18,09,40,17.40
2015,06,18,09,41,17.40
2015,06,18,09,42,17.50
2015,06,18,09,43,17.50
2015,06,18,09,44,17.50
2015,06,18,09,45,17.50
2015,06,18,09,46,17.50
2015,06,18,09,47,17.50
2015,06,18,09,48,17.50
2015,06,18,09,49,17.50
2015,06,18,09,50,17.50
2015,06,18,09,51,17.50
2015,06,18,09,52,17.50
2015,06,18,09,53,17.50
2015,06,18,09,54,17.50
2015,06,18,09,55,17.50
2015,06,18,09,56,17.50
2015,06,18,09,57,17.50
2015,06,18,09,58,17.60
2015,06,18,09,59,17.60
2015,06,18,10,00,17.60
2015,06,18,10,01,17.60
2015,06,18,10,02,17.70
2015,06,18,10,03,17.80
2015,06,18,10,04,17.90
2015,06,18,10,05,18.00
2015,06,18,10,06,18.10
2015,06,18,10,07,18.20
2015,06,18,10,08,18.30
2015,06,18,10,09,18.40
2015,06,18,10,10,18.40
2015,06,18,10,11,18.50
2015,06,18,10,12,18.50
2015,06,18,10,13,18.60
2015,06,18,10,14,18.60
2015,06,18,10,15,18.60
2015,06,18,10,16,18.60
2015,06,18,10,17,18.50
2015,06,18,10,18,18.50
2015,06,18,10,19,18.50
2015,06,18,10,20,18.50
2015,06,18,10,21,18.50
2015,06,18,10,22,18.50
2015,06,18,10,23,18.50
2015,06,18,10,24,18.40
2015,06,18,10,25,18.30
2015,06,18,10,26,18.20
2015,06,18,10,27,18.20
2015,06,18,10,28,18.20
2015,06,18,10,29,18.20
2015,06,18,10,30,18.20
2015,06,18,10,31,18.20
2015,06,18,10,32,18.10
2015,06,18,10,33,18.10
2015,06,18,10,34,18.10
2015,06,18,10,35,18.10
2015,06,18,10,36,18.10
2015,06,18,10,37,18.10
2015,06,18,10,38,18.10
2015,06,18,10,39,18.10
2015,06,18,10,40,18.00
2015,06,18,10,41,17.90
2015,06,18,10,42,17.90
2015,06,18,10,43,17.90
2015,06,18,10,44,17.90
2015,06,18,10,45,17.90
2015,06,18,10,46,17.90
2015,06,18,10,47,17.90
2015,06,18,10,48,17.90
2015,06,18,10,49,18.00
2015,06,18,10,50,18.10
2015,06,18,10,51,18.20
2015,06,18,10,52,18.20
2015,06,18,10,53,18.30
2015,06,18,10,54,18.30
2015,06,18,10,55,18.40
2015,06,18,10,56,18.40
2015,06,18,10,57,18.40
2015,06,18,10,58,18.40
2015,06,18,10,59,18.30
2015,06,18,11,00,18.20
2015,06,18,11,01,18.00
2015,06,18,11,02,17.90
2015,06,18,11,03,17.80
2015,06,18,11,04,17.70
2015,06,18,11,05,17.60
2015,06,18,11,06,17.60
2015,06,18,11,07,17.60
2015,06,18,11,08,17.70
2015,06,18,11,09,17.70
2015,06,18,11,10,17.70
2015,06,18,11,11,17.80
2015,06,18,11,12,17.80
2015,06,18,11,13,17.90
2015,06,18,11,14,17.90
2015,06,18,11,15,17.90
2015,06,18,11,16,18.00
2015,06,18,11,17,18.10
2015,06,18,11,18,18.20
2015,06,18,11,19,18.20
2015,06,18,11,20,18.30
2015,06,18,11,21,18.40
2015,06,18,11,22,18.40
2015,06,18,11,23,18.50
2015,06,18,11,24,18.50
2015,06,18,11,25,18.50
2015,06,18,11,26,18.50
2015,06,18,11,27,18.50
2015,06,18,11,28,18.60
2015,06,18,11,29,18.60
2015,06,18,11,30,18.60
2015,06,18,11,31,18.60
2015,06,18,11,32,18.60
2015,06,18,11,33,18.60
2015,06,18,11,34,18.60
2015,06,18,11,35,18.70
2015,06,18,11,36,18.80
2015,06,18,11,37,18.80
2015,06,18,11,38,18.90
2015,06,18,11,39,19.00
2015,06,18,11,40,19.10
2015,06,18,11,41,19.10
2015,06,18,11,42,19.20
2015,06,18,11,43,19.40
2015,06,18,11,44,19.40
2015,06,18,11,45,19.50
2015,06,18,11,46,19.50
2015,06,18,11,47,19.40
2015,06,18,11,48,19.40
2015,06,18,11,49,19.40
2015,06,18,11,50,19.40
2015,06,18,11,51,19.50
2015,06,18,11,52,19.60
2015,06,18,11,53,19.60
2015,06,18,11,54,19.70
2015,06,18,11,55,19.70
2015,06,18,11,56,19.80
2015,06,18,11,57,19.70
2015,06,18,11,58,19.70
2015,06,18,11,59,19.70
2015,06,18,12,00,19.60
2015,06,18,12,01,19.60
2015,06,18,12,02,19.50
2015,06,18,12,03,19.50
2015,06,18,12,04,19.50
2015,06,18,12,05,19.60
2015,06,18,12,06,19.70
2015,06,18,12,07,19.70
2015,06,18,12,08,19.70
2015,06,18,12,09,19.80
2015,06,18,12,10,19.70
2015,06,18,12,11,19.60
2015,06,18,12,12,19.60
2015,06,18,12,13,19.70
2015,06,18,12,14,19.70
2015,06,18,12,15,19.80
2015,06,18,12,16,19.90
2015,06,18,12,17,20.10
2015,06,18,12,18,20.20
2015,06,18,12,19,20.20
2015,06,18,12,20,20.10
2015,06,18,12,21,20.10
2015,06,18,12,22,20.00
2015,06,18,12,23,19.90
2015,06,18,12,24,19.90
2015,06,18,12,25,20.00
2015,06,18,12,26,20.10
2015,06,18,12,27,20.20
2015,06,18,12,28,20.20
2015,06,18,12,29,20.30
2015,06,18,12,30,20.40
2015,06,18,12,31,20.50
2015,06,18,12,32,20.70
2015,06,18,12,33,20.80
2015,06,18,12,34,20.90
2015,06,18,12,35,21.00
2015,06,18,12,36,21.10
2015,06,18,12,37,21.30
2015,06,18,12,38,21.30
2015,06,18,12,39,21.50
2015,06,18,12,40,21.60
2015,06,18,12,41,21.60
2015,06,18,12,42,21.60
2015,06,18,12,43,21.70
2015,06,18,12,44,21.80
2015,06,18,12,45,21.80
2015,06,18,12,46,21.90
2015,06,18,12,47,21.90
2015,06,18,12,48,22.00
2015,06,18,12,49,22.10
2015,06,18,12,50,22.10
2015,06,18,12,51,22.00
2015,06,18,12,52,22.00
2015,06,18,12,53,21.90
2015,06,18,12,54,21.70
2015,06,18,12,55,21.60
2015,06,18,12,56,21.40
2015,06,18,12,57,21.30
2015,06,18,12,58,21.20
2015,06,18,12,59,21.10
2015,06,18,13,00,21.10
2015,06,18,13,01,21.10
2015,06,18,13,02,21.20
2015,06,18,13,03,21.30
2015,06,18,13,04,21.30
2015,06,18,13,05,21.30
2015,06,18,13,06,21.40
2015,06,18,13,07,21.50
2015,06,18,13,08,21.60
2015,06,18,13,09,21.70
2015,06,18,13,10,21.80
2015,06,18,13,11,21.90
2015,06,18,13,12,21.90
2015,06,18,13,13,21.90
2015,06,18,13,14,21.90
2015,06,18,13,15,21.90
2015,06,18,13,16,21.90
2015,06,18,13,17,21.90
2015,06,18,13,18,22.00
2015,06,18,13,19,22.10
2015,06,18,13,20,22.10
2015,06,18,13,21,22.20
2015,06,18,13,22,22.30
2015,06,18,13,23,22.40
2015,06,18,13,24,22.40
2015,06,18,13,25,22.40
2015,06,18,13,26,22.30
2015,06,18,13,27,22.30
2015,06,18,13,28,22.40
2015,06,18,13,29,22.50
2015,06,18,13,30,22.50
2015,06,18,13,31,22.50
2015,06,18,13,32,22.50
2015,06,18,13,33,22.50
2015,06,18,13,34,22.40
2015,06,18,13,35,22.40
2015,06,18,13,36,22.40
2015,06,18,13,37,22.30
2015,06,18,13,38,22.30
2015,06,18,13,39,22.30
2015,06,18,13,40,22.20
2015,06,18,13,41,22.20
2015,06,18,13,42,22.10
2015,06,18,13,43,22.00
2015,06,18,13,44,22.00
2015,06,18,13,45,21.90
2015,06,18,13,46,21.90
2015,06,18,13,47,21.90
2015,06,18,13,48,21.90
2015,06,18,13,49,21.80
2015,06,18,13,50,21.80
2015,06,18,13,51,21.70
2015,06,18,13,52,21.70
2015,06,18,13,53,21.60
2015,06,18,13,54,21.60
2015,06,18,13,55,21.60
2015,06,18,13,56,21.60
2015,06,18,13,57,21.60
2015,06,18,13,58,21.60
2015,06,18,13,59,21.60
2015,06,18,14,00,21.60
2015,06,18,14,01,21.70
2015,06,18,14,02,21.70
2015,06,18,14,03,21.70
2015,06,18,14,04,21.60
2015,06,18,14,05,21.60
2015,06,18,14,06,21.60
2015,06,18,14,07,21.50
2015,06,18,14,08,21.40
2015,06,18,14,09,21.40
2015,06,18,14,10,21.30
2015,06,18,14,11,21.30
2015,06,18,14,12,21.30
2015,06,18,14,13,21.30
2015,06,18,14,14,21.30
2015,06,18,14,15,21.20
2015,06,18,14,16,21.20
2015,06,18,14,17,21.10
2015,06,18,14,18,21.00
2015,06,18,14,19,21.00
2015,06,18,14,20,20.90
2015,06,18,14,21,20.80
2015,06,18,14,22,20.70
2015,06,18,14,23,20.60
2015,06,18,14,24,20.50
2015,06,18,14,25,20.40
2015,06,18,14,26,20.40
2015,06,18,14,27,20.30
2015,06,18,14,28,20.20
2015,06,18,14,29,20.20
2015,06,18,14,30,20.20
2015,06,18,14,31,20.10
2015,06,18,14,32,20.10
2015,06,18,14,33,20.10
2015,06,18,14,34,20.10
2015,06,18,14,35,20.10
2015,06,18,14,36,20.20
2015,06,18,14,37,20.20
2015,06,18,14,38,20.20
2015,06,18,14,39,20.20
2015,06,18,14,40,20.20
2015,06,18,14,41,20.20
2015,06,18,14,42,20.20
2015,06,18,14,43,20.20
2015,06,18,14,44,20.20
2015,06,18,14,45,20.10
2015,06,18,14,46,20.00
2015,06,18,14,47,19.90
2015,06,18,14,48,19.90
2015,06,18,14,49,19.80
2015,06,18,14,50,19.70
2015,06,18,14,51,19.60
2015,06,18,14,52,19.50
2015,06,18,14,53,19.50
2015,06,18,14,54,19.40
2015,06,18,14,55,19.40
2015,06,18,14,56,19.50
2015,06,18,14,57,19.40
2015,06,18,14,58,19.40
2015,06,18,14,59,19.40
2015,06,18,15,00,19.30
2015,06,18,15,01,19.30
2015,06,18,15,02,19.20
2015,06,18,15,03,19.20
2015,06,18,15,04,19.20
2015,06,18,15,05,19.10
2015,06,18,15,06,19.10
2015,06,18,15,07,19.10
2015,06,18,15,08,19.00
2015,06,18,15,09,18.90
2015,06,18,15,10,18.90
2015,06,18,15,11,18.90
2015,06,18,15,12,18.80
2015,06,18,15,13,18.80
2015,06,18,15,14,18.80
2015,06,18,15,15,18.80
2015,06,18,15,16,18.80
2015,06,18,15,17,18.80
2015,06,18,15,18,18.80
2015,06,18,15,19,18.80
2015,06,18,15,20,18.80
2015,06,18,15,21,18.80
2015,06,18,15,22,18.90
2015,06,18,15,23,18.90
2015,06,18,15,24,18.90
2015,06,18,15,25,18.90
2015,06,18,15,26,18.80
2015,06,18,15,27,18.80
2015,06,18,15,28,18.80
2015,06,18,15,29,18.80
2015,06,18,15,30,18.80
2015,06,18,15,31,18.70
2015,06,18,15,32,18.70
2015,06,18,15,33,18.70
2015,06,18,15,34,18.60
2015,06,18,15,35,18.60
2015,06,18,15,36,18.50
2015,06,18,15,37,18.50
2015,06,18,15,38,18.40
2015,06,18,15,39,18.40
2015,06,18,15,40,18.40
2015,06,18,15,41,18.30
2015,06,18,15,42,18.30
2015,06,18,15,43,18.30
2015,06,18,15,44,18.20
2015,06,18,15,45,18.10
2015,06,18,15,46,18.10
2015,06,18,15,47,18.00
2015,06,18,15,48,17.90
2015,06,18,15,49,17.80
2015,06,18,15,50,17.80
2015,06,18,15,51,17.70
2015,06,18,15,52,17.70
2015,06,18,15,53,17.70
2015,06,18,15,54,17.60
2015,06,18,15,55,17.60
2015,06,18,15,56,17.60
2015,06,18,15,57,17.60
2015,06,18,15,58,17.60
2015,06,18,15,59,17.60
2015,06,18,16,00,17.60
2015,06,18,16,01,17.60
2015,06,18,16,02,17.60
2015,06,18,16,03,17.50
2015,06,18,16,04,17.50
2015,06,18,16,05,17.50
2015,06,18,16,06,17.40
2015,06,18,16,07,17.30
2015,06,18,16,08,17.20
2015,06,18,16,09,17.10
2015,06,18,16,10,17.00
2015,06,18,16,11,16.90
2015,06,18,16,12,16.90
2015,06,18,16,13,16.80
2015,06,18,16,14,16.70
2015,06,18,16,15,16.70
2015,06,18,16,16,16.60
2015,06,18,16,17,16.50
2015,06,18,16,18,16.40
2015,06,18,16,19,16.40
2015,06,18,16,20,16.30
2015,06,18,16,21,16.20
2015,06,18,16,22,16.10
2015,06,18,16,23,16.10
2015,06,18,16,24,16.00
2015,06,18,16,25,15.90
2015,06,18,16,26,15.80
2015,06,18,16,27,15.80
2015,06,18,16,28,15.70
2015,06,18,16,29,15.70
2015,06,18,16,30,15.60
2015,06,18,16,31,15.60
2015,06,18,16,32,15.60
2015,06,18,16,33,15.50
2015,06,18,16,34,15.50
2015,06,18,16,35,15.40
2015,06,18,16,36,15.40
2015,06,18,16,37,15.40
2015,06,18,16,38,15.30
2015,06,18,16,39,15.30
2015,06,18,16,40,15.30
2015,06,18,16,41,15.30
2015,06,18,16,42,15.30
2015,06,18,16,43,15.20
2015,06,18,16,44,15.20
2015,06,18,16,45,15.20
2015,06,18,16,46,15.20
2015,06,18,16,47,15.10
2015,06,18,16,48,15.10
2015,06,18,16,49,15.10
2015,06,18,16,50,15.10
2015,06,18,16,51,15.10
2015,06,18,16,52,15.00
2015,06,18,16,53,15.00
2015,06,18,16,54,15.00
2015,06,18,16,55,15.00
2015,06,18,16,56,14.90
2015,06,18,16,57,14.90
2015,06,18,16,58,14.80
2015,06,18,16,59,14.80
2015,06,18,17,00,14.80
2015,06,18,17,01,14.80
2015,06,18,17,02,14.80
2015,06,18,17,03,14.80
2015,06,18,17,04,14.80
2015,06,18,17,05,14.70
2015,06,18,17,06,14.70
2015,06,18,17,07,14.60
2015,06,18,17,08,14.60
2015,06,18,17,09,14.60
2015,06,18,17,10,14.50
2015,06,18,17,11,14.50
2015,06,18,17,12,14.50
2015,06,18,17,13,14.50
2015,06,18,17,14,14.50
2015,06,18,17,15,14.50
2015,06,18,17,16,14.50
2015,06,18,17,17,14.50
2015,06,18,17,18,14.60
2015,06,18,17,19,14.60
2015,06,18,17,20,14.60
2015,06,18,17,21,14.60
2015,06,18,17,22,14.60
2015,06,18,17,23,14.70
2015,06,18,17,24,14.70
2015,06,18,17,25,14.70
2015,06,18,17,26,14.80
2015,06,18,17,27,14.80
2015,06,18,17,28,14.80
2015,06,18,17,29,14.80
2015,06,18,17,30,14.80
2015,06,18,17,31,14.80
2015,06,18,17,32,14.90
2015,06,18,17,33,14.90
2015,06,18,17,34,14.90
2015,06,18,17,35,14.90
2015,06,18,17,36,14.90
2015,06,18,17,37,14.80
2015,06,18,17,38,14.80
2015,06,18,17,39,14.80
2015,06,18,17,40,14.80
2015,06,18,17,41,14.80
2015,06,18,17,42,14.80
2015,06,18,17,43,14.80
2015,06,18,17,44,14.80
2015,06,18,17,45,14.80
2015,06,18,17,46,14.70
2015,06,18,17,47,14.70
2015,06,18,17,48,14.70
2015,06,18,17,49,14.70
2015,06,18,17,50,14.70
2015,06,18,17,51,14.70
2015,06,18,17,52,14.60
2015,06,18,17,53,14.60
2015,06,18,17,54,14.60
2015,06,18,17,55,14.60
2015,06,18,17,56,14.60
2015,06,18,17,57,14.50
2015,06,18,17,58,14.50
2015,06,18,17,59,14.50
2015,06,18,18,00,14.50
2015,06,18,18,01,14.50
2015,06,18,18,02,14.50
2015,06,18,18,03,14.50
2015,06,18,18,04,14.50
2015,06,18,18,05,14.50
2015,06,18,18,06,14.40
2015,06,18,18,07,14.30
2015,06,18,18,08,14.30
2015,06,18,18,09,14.30
2015,06,18,18,10,14.30
2015,06,18,18,11,14.40
2015,06,18,18,12,14.40
2015,06,18,18,13,14.40
2015,06,18,18,14,14.40
2015,06,18,18,15,14.50
2015,06,18,18,16,14.50
2015,06,18,18,17,14.50
2015,06,18,18,18,14.40
2015,06,18,18,19,14.40
2015,06,18,18,20,14.40
2015,06,18,18,21,14.40
2015,06,18,18,22,14.40
2015,06,18,18,23,14.40
2015,06,18,18,24,14.30
2015,06,18,18,25,14.30
2015,06,18,18,26,14.40
2015,06,18,18,27,14.30
2015,06,18,18,28,14.30
2015,06,18,18,29,14.40
2015,06,18,18,30,14.40
2015,06,18,18,31,14.40
2015,06,18,18,32,14.50
2015,06,18,18,33,14.50
2015,06,18,18,34,14.50
2015,06,18,18,35,14.60
2015,06,18,18,36,14.60
2015,06,18,18,37,14.50
2015,06,18,18,38,14.50
2015,06,18,18,39,14.50
2015,06,18,18,40,14.50
2015,06,18,18,41,14.50
2015,06,18,18,42,14.50
2015,06,18,18,43,14.50
2015,06,18,18,44,14.60
2015,06,18,18,45,14.60
2015,06,18,18,46,14.60
2015,06,18,18,47,14.60
2015,06,18,18,48,14.60
2015,06,18,18,49,14.70
2015,06,18,18,50,14.70
2015,06,18,18,51,14.70
2015,06,18,18,52,14.70
2015,06,18,18,53,14.70
2015,06,18,18,54,14.60
2015,06,18,18,55,14.70
2015,06,18,18,56,14.70
2015,06,18,18,57,14.70
2015,06,18,18,58,14.70
2015,06,18,18,59,14.50
2015,06,18,19,00,14.40
2015,06,18,19,01,14.30
2015,06,18,19,02,14.30
2015,06,18,19,03,14.30
2015,06,18,19,04,14.30
2015,06,18,19,05,14.30
2015,06,18,19,06,14.30
2015,06,18,19,07,14.30
2015,06,18,19,08,14.30
2015,06,18,19,09,14.30
2015,06,18,19,10,14.30
2015,06,18,19,11,14.30
2015,06,18,19,12,14.40
2015,06,18,19,13,14.40
2015,06,18,19,14,14.40
2015,06,18,19,15,14.40
2015,06,18,19,16,14.50
2015,06,18,19,17,14.50
2015,06,18,19,18,14.50
2015,06,18,19,19,14.50
2015,06,18,19,20,14.50
2015,06,18,19,21,14.50
2015,06,18,19,22,14.60
2015,06,18,19,23,14.60
2015,06,18,19,24,14.60
2015,06,18,19,25,14.70
2015,06,18,19,26,14.70
2015,06,18,19,27,14.80
2015,06,18,19,28,14.80
2015,06,18,19,29,14.80
2015,06,18,19,30,14.80
2015,06,18,19,31,14.80
2015,06,18,19,32,14.80
2015,06,18,19,33,14.80
2015,06,18,19,34,14.80
2015,06,18,19,35,14.80
2015,06,18,19,36,14.80
2015,06,18,19,37,14.80
2015,06,18,19,38,14.80
2015,06,18,19,39,14.80
2015,06,18,19,40,14.80
2015,06,18,19,41,14.80
2015,06,18,19,42,14.80
2015,06,18,19,43,14.80
2015,06,18,19,44,14.80
2015,06,18,19,45,14.80
2015,06,18,19,46,14.80
2015,06,18,19,47,14.80
2015,06,18,19,48,14.80
2015,06,18,19,49,14.80
2015,06,18,19,50,14.80
2015,06,18,19,51,14.80
2015,06,18,19,52,14.80
2015,06,18,19,53,14.80
2015,06,18,19,54,14.80
2015,06,18,19,55,14.80
2015,06,18,19,56,14.80
2015,06,18,19,57,14.70
2015,06,18,19,58,14.70
2015,06,18,19,59,14.70
2015,06,18,20,00,14.60
2015,06,18,20,01,14.60
2015,06,18,20,02,14.60
2015,06,18,20,03,14.60
2015,06,18,20,04,14.60
2015,06,18,20,05,14.60
2015,06,18,20,06,14.60
2015,06,18,20,07,14.60
2015,06,18,20,08,14.60
2015,06,18,20,09,14.60
2015,06,18,20,10,14.60
2015,06,18,20,11,14.60
2015,06,18,20,12,14.60
2015,06,18,20,13,14.60
2015,06,18,20,14,14.60
2015,06,18,20,15,14.60
2015,06,18,20,16,14.60
2015,06,18,20,17,14.60
2015,06,18,20,18,14.60
